Location: Lawrence Hall of Science
(37.8785°N, 122.2415°W)
Time: 14:09:24
(UTC-07:00)

Cosmos 1461 - Visible Passes

Search period start: 01 July 2015 00:00
Search period end: 11 July 2015 00:00
Orbit: 511 x 675 km, 65.0° (Epoch: 30 June)

Date Brightness Start Highest point End Pass type
(mag) Time Alt. Az. Time Alt. Az. Time Alt. Az.
04 Jul 5.4 04:32:26 10° SE 04:34:43 15° ESE 04:37:15 10° ENE visible
05 Jul 4.6 04:39:55 10° S 04:43:25 27° ESE 04:47:08 10° NE visible
06 Jul 3.6 04:48:09 10° SSW 04:52:08 52° ESE 04:56:24 10° NE visible
07 Jul 2.9 04:57:09 12° SSW 05:00:58 83° WNW 05:05:24 10° NNE visible
08 Jul 5.2 03:29:30 13° SE 03:30:58 15° ESE 03:33:34 10° ENE visible
08 Jul 3.5 05:06:06 11° SW 05:09:54 45° NW 05:14:10 10° NNE visible
09 Jul 4.4 03:38:24 24° SE 03:39:39 28° ESE 03:43:25 10° NE visible
09 Jul 4.4 05:15:19 10° WSW 05:18:57 27° NW 05:22:43 10° N visible
10 Jul 3.4 03:47:14 39° SSE 03:48:23 52° ESE 03:52:40 10° NE visible
